Regional Weather Roundup
Issued by NWS

Home | Current Version | Previous Version | Text Only | Print | Product List | Glossary On
Versions: 1 2 3 4 5 6 7 8 9 10 11 12 13 14 15 16 17 18 19 20 21 22 23 24 25 26 27 28 29 30 31 32 33 34 35 36 37 38 39 40 41 42 43 44 45 46 47 48 49 50
000
ASCA42 TJSJ 210511
RWRPR
PUERTO RICO/U.S. VIRGIN ISLANDS HOURLY WEATHER ROUNDUP
NATIONAL WEATHER SERVICE SAN JUAN PR
100 AM AST MON APR 21 2014

PRZ001-004-210600-
PUERTO RICO

CITY           SKY/WX    TMP DP  RH WIND       PRES   REMARKS
SAN JUAN LMM   CLEAR     77  70  78 CALM      30.03F
PONCE          PTCLDY    73  68  83 CALM      30.01S
CEIBA          PTCLDY    79  70  73 SE8       30.06F
$$

PRZ006-007-210600-
U.S. VIRGIN ISLANDS

CITY           SKY/WX    TMP DP  RH WIND       PRES   REMARKS
CHARLOTTE AMA  MOCLDY    75  72  88 E7        30.04F
CHRISTIANSTED  PTCLDY    79  70  73 E9        30.04F
$$

HOURLY WEATHER ROUNDUP FOR THE NEWS MEDIA

CITY           SKY/WX    TMP DP  RH WIND       PRES   REMARKS
MIAMI          PTCLDY    69  60  73 N6        30.04S
ORLANDO        CLOUDY    61  57  87 N7        30.10S
NEW YORK       PTCLDY    42  26  53 NE3       30.32F
NEWARK         PTCLDY    42  29  59 W5        30.31F
CHICAGO        MOCLDY    64  39  39 S10       30.01S
HARTFORD       CLEAR     34  32  92 CALM      30.32F
BOSTON         PTCLDY    40  33  76 SW6       30.33F
DALLAS         CLOUDY    63  60  90 E13       30.05F
PHILADELPHIA   CLEAR     42  20  41 NE7       30.32F



USA.gov is the U.S. government's official web portal to all federal, state and local government web resources and services.